BREEZE-M DEB, 38651

Orbit data source: Space-Track

BREEZE-M DEB, 38651 is space debris in HEO originally from a launch on Fri, 14 Mar 2008 UTC launched from the Tyuratam Missile And Space Complex (TTMTR). Debris objects in space refer to the collection of defunct objects orbiting the Earth. Examples of debris include non-operational satellites, rocket bodies, and fragments generated from explosions, collisions, or faulty payload assembly.

Loading next visibility...
Identifier
38651, 2008-011DA
Orbit
HEO
Country
Flag of CISCIS
Related business
Manufacturer
Unknown
Mission
Spacecraft
Bus & Motor
Unknown
Mass
Unknown
Launch date (UTC)
2008-03-14 (18 years ago)
Launch vehicle
Unknown
Launch site
Tyuratam Missile And Space Complex (TTMTR)
Object type
Payload
Rocket body
Debris
Shape & HBR
Unknown shape, 0.7 m
Radar Cross Section
Medium (>0.1 m² and <1 m²)

Expand to show TLE details & history
Last TLE update: 2 weeks ago

TLE from 2 weeks ago
0 BREEZE-M DEB
1 38651U 08011DA  26157.23597223 -.00000511  00000-0 -17225-1 0  9994
2 38651  49.1786  48.2114 6363614 189.8965 352.9367  3.06104424174534
Epoch: 2026-06-06T05:39Z
TLE epoch observation values (Epoch: 2026-06-06T05:39:48.000Z)
Latitude
21.83406°
Longitude
-131.50039°
Altitude
1,602.878 km
Speed
8.946 km/s
True Right ascension
13h 52m 24s
True Declination
21° 43' 41"
Sunlit
Object was in daylight at epoch
Visualization orbit readout
Latitude
Unknown
Longitude
Unknown
Altitude
Unknown
Speed
Unknown
Apparent Right ascension
Unknown
Apparent Declination
Unknown
Sunlit
N/A
Visualization observer readout
Local Sidereal Time
23:09:16
Azimuth
Unknown
Elevation
Unknown
Doppler factor
Unknown
Orbital elements
Apogee altitude
26,409.961 km
Perigee altitude
908.162 km
Semi-major axis
20,037.199 km
Eccentricity
0.63636
Inclination
49.1786°
RAAN
48.2114°
Arg. of periapsis
189.8965°
True anomaly
321.23415°
Mean anomaly
352.9367°
Eccentric anomaly
341.16637°
Mean motion
0.76522 °/min
Orbital period
470.45 mins
BSTAR
-0.017225
Loading maneuver chart data...
Computing Atmospheric mass density...
Loading historical data...
Loading historical data...
Loading historical data...
Loading historical data...
Loading historical data...
Loading historical data...
Loading historical data...

Documentation

Showing up to 5 results
|